Hourly Weather Abbotsford

Today, 24 January, Sunday

Time Temperature Precipitation Wind Pressure Humidity
00:00 +2°C° 0.1 mm 1 mps 753 mmHg 82%
01:00 +2°C° 0.1 mm 1 mps 752 mmHg 86%
02:00 +2°C° 0.2 mm 1 mps 752 mmHg 88%
03:00 +2°C° 0.2 mm 1 mps 751 mmHg 89%
04:00 +2°C° 0.2 mm 1 mps 751 mmHg 91%
05:00 +2°C° 0.1 mm 1 mps 750 mmHg 91%
06:00 +2°C° 0.1 mm 1 mps 749 mmHg 91%
07:00 +2°C° 0.1 mm 1 mps 749 mmHg 92%
08:00 +2°C° 0.1 mm 1 mps 748 mmHg 89%
09:00 +3°C° 0.1 mm 1 mps 748 mmHg 86%
10:00 +3°C° 0.1 mm 2 mps 748 mmHg 83%
11:00 +4°C° 0 mm 1 mps 747 mmHg 80%
12:00 +5°C° 0 mm 1 mps 747 mmHg 78%
13:00 +6°C° 0 mm 1 mps 746 mmHg 75%
14:00 +5°C° 0.2 mm 1 mps 746 mmHg 80%
15:00 +5°C° 0.2 mm 1 mps 746 mmHg 85%
16:00 +4°C° 0.2 mm 1 mps 745 mmHg 91%
17:00 +4°C° 0.5 mm 1 mps 746 mmHg 92%
18:00 +3°C° 0.5 mm 1 mps 746 mmHg 94%
19:00 +3°C° 0.5 mm 1 mps 746 mmHg 96%
20:00 +2°C° 0.5 mm 0 mps 747 mmHg 96%
21:00 +2°C° 0.5 mm 0 mps 747 mmHg 96%
22:00 +2°C° 0.5 mm 0 mps 747 mmHg 96%
23:00 +3°C° 0.8 mm 1 mps 747 mmHg 96%

Tomorrow, 25 January, Monday

Time Temperature Precipitation Wind Pressure Humidity
00:00 +3°C° 0.8 mm 1 mps 747 mmHg 96%
01:00 +2°C° 0.8 mm 1 mps 747 mmHg 97%
02:00 +2°C° 0.7 mm 1 mps 748 mmHg 97%
03:00 +2°C° 0.7 mm 1 mps 748 mmHg 97%
04:00 +2°C° 0.7 mm 1 mps 748 mmHg 97%
05:00 +2°C° 0.4 mm 1 mps 748 mmHg 96%
06:00 +2°C° 0.4 mm 1 mps 748 mmHg 96%
07:00 +2°C° 0.4 mm 1 mps 748 mmHg 96%
08:00 +2°C° 0.1 mm 1 mps 748 mmHg 95%
09:00 +1°C° 0.1 mm 2 mps 748 mmHg 93%
10:00 +2°C° 0.1 mm 2 mps 748 mmHg 91%
11:00 +2°C° 0.1 mm 2 mps 748 mmHg 89%
12:00 +3°C° 0.1 mm 2 mps 748 mmHg 87%
13:00 +4°C° 0.1 mm 2 mps 748 mmHg 85%
14:00 +4°C° 0.1 mm 1 mps 747 mmHg 87%
15:00 +4°C° 0.1 mm 1 mps 747 mmHg 88%
16:00 +3°C° 0.1 mm 1 mps 747 mmHg 90%
17:00 +3°C° 0.7 mm 1 mps 748 mmHg 92%
18:00 +2°C° 0.7 mm 1 mps 748 mmHg 95%
19:00 +1°C° 0.7 mm 0 mps 748 mmHg 97%
20:00 +2°C° 0.4 mm 1 mps 748 mmHg 97%
21:00 +2°C° 0.4 mm 1 mps 748 mmHg 96%
22:00 +1°C° 0.4 mm 1 mps 748 mmHg 96%
23:00 +1°C° 0 mm 1 mps 747 mmHg 94%

Day after tomorrow, 26 January, Tuesday

Time Temperature Precipitation Wind Pressure Humidity
00:00 +1°C° 0 mm 1 mps 747 mmHg 93%
01:00 0°C° 0 mm 1 mps 746 mmHg 91%
02:00 -2°C° 0 mm 2 mps 746 mmHg 90%
03:00 -3°C° 0 mm 2 mps 745 mmHg 90%
04:00 -3°C° 0 mm 2 mps 745 mmHg 89%
05:00 -3°C° 0 mm 2 mps 744 mmHg 87%
06:00 -4°C° 0 mm 3 mps 744 mmHg 85%
07:00 -4°C° 0 mm 3 mps 743 mmHg 83%
08:00 -2°C° 0 mm 3 mps 742 mmHg 80%
09:00 -1°C° 0 mm 3 mps 741 mmHg 76%
10:00 -1°C° 0 mm 3 mps 740 mmHg 73%
11:00 -1°C° 0 mm 4 mps 739 mmHg 71%
12:00 0°C° 0 mm 4 mps 737 mmHg 69%
13:00 +1°C° 0 mm 4 mps 736 mmHg 66%
14:00 +2°C° 0.2 mm 3 mps 736 mmHg 72%
15:00 +1°C° 0.2 mm 3 mps 736 mmHg 78%
16:00 +2°C° 0.2 mm 2 mps 736 mmHg 83%
17:00 +1°C° 0.1 mm 2 mps 736 mmHg 85%
18:00 +1°C° 0.1 mm 2 mps 737 mmHg 86%
19:00 +1°C° 0.1 mm 2 mps 737 mmHg 87%
20:00 -1°C° 0 mm 2 mps 737 mmHg 87%
21:00 -1°C° 0 mm 2 mps 737 mmHg 87%
22:00 +1°C° 0 mm 1 mps 738 mmHg 87%
23:00 +1°C° 0 mm 1 mps 738 mmHg 87%

27 January, Wednesday

Time Temperature Precipitation Wind Pressure Humidity
00:00 +1°C° 0 mm 1 mps 739 mmHg 88%
01:00 +1°C° 0 mm 1 mps 739 mmHg 88%
02:00 +1°C° 0 mm 1 mps 739 mmHg 88%
03:00 +1°C° 0 mm 1 mps 739 mmHg 88%
04:00 +1°C° 0 mm 1 mps 740 mmHg 88%
05:00 0°C° 0 mm 1 mps 740 mmHg 88%
06:00 -2°C° 0 mm 2 mps 740 mmHg 87%
07:00 -3°C° 0 mm 2 mps 741 mmHg 86%
08:00 -2°C° 0 mm 2 mps 741 mmHg 83%
09:00 +1°C° 0 mm 2 mps 741 mmHg 80%
10:00 +2°C° 0 mm 2 mps 741 mmHg 77%
11:00 +3°C° 0 mm 2 mps 741 mmHg 75%
12:00 +4°C° 0 mm 2 mps 741 mmHg 74%
13:00 +5°C° 0 mm 2 mps 741 mmHg 72%
14:00 +5°C° 0 mm 2 mps 741 mmHg 75%
15:00 +5°C° 0 mm 1 mps 741 mmHg 79%
16:00 +5°C° 0 mm 1 mps 742 mmHg 82%
17:00 +3°C° 0 mm 1 mps 743 mmHg 83%
18:00 +2°C° 0 mm 1 mps 744 mmHg 85%
19:00 -1°C° 0 mm 2 mps 745 mmHg 86%
20:00 -2°C° 0 mm 2 mps 745 mmHg 85%
21:00 -2°C° 0 mm 2 mps 746 mmHg 84%
22:00 -2°C° 0 mm 2 mps 746 mmHg 82%
23:00 -3°C° 0 mm 2 mps 746 mmHg 82%

28 January, Thursday

Time Temperature Precipitation Wind Pressure Humidity
00:00 -3°C° 0 mm 2 mps 747 mmHg 82%
01:00 -3°C° 0 mm 2 mps 747 mmHg 81%
02:00 -3°C° 0 mm 2 mps 747 mmHg 80%
03:00 -4°C° 0 mm 2 mps 748 mmHg 80%
04:00 -4°C° 0 mm 2 mps 748 mmHg 79%
05:00 -4°C° 0 mm 2 mps 748 mmHg 79%
06:00 -4°C° 0 mm 2 mps 749 mmHg 79%
07:00 -5°C° 0 mm 2 mps 749 mmHg 78%
08:00 -3°C° 0 mm 2 mps 749 mmHg 75%
09:00 -2°C° 0 mm 2 mps 749 mmHg 71%
10:00 -1°C° 0 mm 2 mps 749 mmHg 68%

29 January, Friday

Time Temperature Precipitation Wind Pressure Humidity
Show more